Terminal Aerodrome Forecast
Issued by NWS Twin Cities, MN

Home | Current Version | Previous Version | Text Only | Print | Product List | Glossary Off
Versions: 1 2 3 4 5 6 7 8 9 10 11 12 13 14 15 16 17 18 19 20 21 22 23 24 25 26

000
FTUS43 KMPX 142300
TAFMSP
TAF
KMSP 142326Z 1500/1606 29007KT P6SM FEW050 BKN120
     FM150300 32004KT P6SM -RA SCT040 OVC060
     FM150900 32005KT P6SM BKN060
     FM151600 32009KT P6SM SKC=

USA.gov is the U.S. government's official web portal to all federal, state and local government web resources and services.